Вернуться в каталог

DFH-1

АктивенСвязьLEO
NORAD 4382·PAYLOAD·🇨🇳 China

Запущен Apr 24, 1970 с Jiuquan Satellite Launch Center

Loading…

Ближайшие Пролёты (ближайшие 24 часа)

TLE

СвежийSource: Space-Track

Эпоха: Sep 14, 2026, 12:28 UTC

1 04382U 70034A   26257.51971188  .00000227  00000-0  43768-4 0  9996
2 04382  68.4261 239.4868 1032142 259.7708  88.5571 13.14637015657426

Отслеживайте DFH-1 в реальном времени с AllMySat

Download on the App Store